User: anonymous   Login
Location: Cabrera Baja
(40.4089°N, 4.3354°W)
Time: 13:40:51
(UTC+00:00)
Language:

Cosmos 2123 Rocket - Orbit

View from above orbital plane
View from above orbital plane
View from above satellite
View from above satellite

Ground track
Ground track

The orbit data is extracted from the following two-line orbital elements,

1 21090U 91007B   20272.19325613 -.00000034  00000-0 -50291-4 0  9992
2 21090  82.9195  65.6857 0019412 283.6289  76.2706 13.76392939488910
Epoch (UTC): 28 September 2020 04:38:17
Eccentricity: 0.0019412
inclination: 82.9195°
perigee height: 962 km
apogee height: 991 km
right ascension of ascending node: 65.6857°
argument of perigee: 283.6289°
revolutions per day: 13.76392939
mean anomaly at epoch: 76.2706°
orbit number at epoch: 48891

The dashed part of the orbit path shows where the satellite is in the earth's shadow,  

DLR